User: anonymous   Login
Location: Vancouver
(49.2500°N, 123.1330°W)
Time: 01:10:05
(UTC-08:00)
Language:

Cosmos 1939 Rocket - Orbit

View from above orbital plane
View from above orbital plane
View from above satellite
View from above satellite

Ground track
Ground track

The orbit data is extracted from the following two-line orbital elements,

1 19046U 88032B   18051.90448600 -.00000248 +00000-0 -13943-4 0  9997
2 19046 097.4980 096.1688 0036188 202.8094 157.1525 15.02389203609697
Epoch (UTC): 20 February 2018 21:42:27
Eccentricity: 0.0036188
inclination: 97.4980°
perigee height: 534 km
apogee height: 584 km
right ascension of ascending node: 96.1688°
argument of perigee: 202.8094°
revolutions per day: 15.02389203
mean anomaly at epoch: 157.1525°
orbit number at epoch: 60969

The dashed part of the orbit path shows where the satellite is in the earth's shadow,  

DLR